This is the latest recevied weather packets stored in our database for station/object IONIA-WX. If no packets are shown the sender has not sent any weather packets the latest 10 day(s).
| Time | Temp. | Humidity | Pressure | Rain* | Wind** | Luminosity | Snow |
|---|---|---|---|---|---|---|---|
| 1788128121 | 25.56° C | 65% | 986.2 hPa | 0 mm | - | - | - |
| 1788127226 | 26.11° C | 65% | 986.2 hPa | 0 mm | - | - | - |
| 1788126321 | 26.11° C | 64% | 986.2 hPa | 0 mm | - | - | - |
| 1788125422 | 26.67° C | 61% | 986.2 hPa | 0 mm | - | - | - |
| 1788124521 | 27.22° C | 61% | 986.3 hPa | 0 mm | - | - | - |
| 1788123618 | 27.78° C | 61% | 986.3 hPa | 0 mm | - | - | - |
| 1788122720 | 27.78° C | 66% | 986.5 hPa | 0 mm | - | - | - |
| 1788121820 | 27.78° C | 62% | 985.9 hPa | 0 mm | - | - | - |
| 1788120921 | 27.22° C | 62% | 985.9 hPa | 0 mm | - | - | - |
| 1788120020 | 27.22° C | 63% | 986 hPa | 0 mm | - | - | - |
| 1788119120 | 27.22° C | 66% | 986.1 hPa | 0 mm | - | - | - |
| 1788118219 | 26.67° C | 66% | 986.1 hPa | 0 mm | - | - | - |
| 1788117320 | 26.67° C | 62% | 986.1 hPa | 0 mm | - | - | - |
| 1788116420 | 26.11° C | 62% | 986.1 hPa | 0 mm | - | - | - |
| 1788115519 | 26.11° C | 69% | 986.4 hPa | 0 mm | - | - | - |
| 1788114630 | 25.56° C | 69% | 986.4 hPa | 0 mm | - | - | - |
| 1788113720 | 25.56° C | 69% | 986.4 hPa | 0 mm | - | - | - |
| 1788112820 | 25° C | 69% | 986.4 hPa | 0 mm | - | - | - |
| 1788111918 | 24.44° C | 71% | 986.7 hPa | 0 mm | - | - | - |
| 1788111017 | 23.89° C | 71% | 986.7 hPa | 0 mm | - | - | - |
| 1788110121 | 23.89° C | 71% | 986.7 hPa | 0 mm | - | - | - |
| 1788109218 | 23.33° C | 71% | 986.7 hPa | 0 mm | - | - | - |
| 1788108316 | 22.78° C | 79% | 986.3 hPa | 0 mm | - | - | - |
| 1788107422 | 22.78° C | 75% | 986.4 hPa | 0 mm | - | - | - |
| 1788106523 | 22.22° C | 75% | 986.4 hPa | 0 mm | - | - | - |
* Rain latest hour (hover to see other rain measurements)
** Current wind speed in m/s (hover to see current wind gust speed)